Weather Roundup
Issued by NWS

Home | Current Version | Previous Version | Graphics & Text | Print | Product List | Glossary Off
Versions: 1 2 3 4 5 6 7 8 9 10 11 12 13 14 15 16 17 18 19 20 21 22 23 24 25 26 27 28 29 30 31 32 33 34 35 36 37 38 39 40 41 42 43 44 45 46 47 48 49 50

000
NZUS93 KARX 270210
HRRWXR

CURRENT HOURLY OBSERVATIONS ACROSS
MUCH OF THE UPPER MISSISSIPPI VALLEY
NATIONAL WEATHER SERVICE LA CROSSE WI
800 PM CST THU FEB 26 2015


...SOUTHEAST MINNESOTA...


CITY           SKY/WX    TMP DP  RH WIND       PRES   REMARKS
ROCHESTER      CLEAR     -4 -11  72 W13       30.42R WCI -23
ROCHESTER/MAYO FAIR       2  -7  66 W10       30.43S WCI -13
WINONA         CLEAR      3  -8  60 NW5       30.48R WCI  -6
AUSTIN         CLEAR     -2  -8  78 NW12      30.44S WCI -20
ALBERT LEA     CLEAR     -2  -9  71 NW7       30.46R WCI -16
DODGE CENTER   PTCLDY     0  -8  71 W10       30.42S WCI -17
PRESTON        FAIR      -4 -11  71 NW10      30.42S WCI -21
OWATONNA       CLEAR     -2  -9  71 W10       30.46S WCI -19
FARIBAULT      CLEAR      0  -8  71 W7        30.47R WCI -13
$$

...ELSEWHERE IN MINNESOTA...


CITY           SKY/WX    TMP DP  RH WIND       PRES   REMARKS
MINNEAPOLIS    CLEAR      5  -8  55 NW9       30.47R WCI  -9
INTNL FALLS    CLEAR    -11 -18  71 W3        30.37F
DULUTH         CLEAR      2 -12  52 NW10      30.33S WCI -14
RED WING       CLEAR      1 -11  55 CALM      30.46S
REDWOOD FALLS  CLEAR     -2  -9  72 W12       30.51S WCI -20
MANKATO        FAIR       0 -13  55 NW9       30.48S WCI -16
FAIRMONT       CLEAR     -2 -11  65 NW12      30.47S WCI -20
$$

...SOUTHWEST WISCONSIN...


CITY           SKY/WX    TMP DP  RH WIND       PRES   REMARKS
LA CROSSE      CLEAR      1  -9  62 NW5       30.46R WCI  -9
PRAIRIE DU CHI CLEAR      3  -9  56 NW6       30.47R WCI  -8
BOSCOBEL       CLEAR      2  -7  66 CALM      30.45R
LONE ROCK      CLEAR      7  -7  52 NW9       30.43R WCI  -7
PLATTEVILLE    CLEAR      2  -8  63 W5        30.41R WCI  -8
FORT MC COY    CLEAR     -3 -10  72 CALM      30.44R
VIROQUA        FAIR       2  -8  63 NW5       30.38R WCI  -7
WIS DELLS      CLEAR      3  -9  57 CALM      30.39R
$$

...ELSEWHERE IN WISCONSIN...


CITY           SKY/WX    TMP DP  RH WIND       PRES   REMARKS
MILWAUKEE      CLEAR      9  -6  50 NW7       30.38R WCI  -2
MADISON        CLEAR      4  -8  57 NW3       30.39R
GREEN BAY      CLEAR      6  -3  66 SW5       30.36R WCI  -3
EAU CLAIRE     FAIR       1 -12  54 W5        30.42R WCI  -9
BLACK RVR FLS  FAIR      -6 -13  71 CALM      30.42R
MEDFORD        CLEAR      1 -10  60 W3        30.32S
WAUSAU         CLEAR      4  -9  55 NW6       30.32R WCI  -7
WIS RAPIDS     CLEAR      3 -10  54 W5        30.38R WCI  -6
MARSHFIELD     CLEAR      2  -9  60 W6        30.35R WCI  -9
RICE LAKE      CLEAR     -2 -12  62 W5        30.42R WCI -12
$$

...NORTHEAST IOWA...


CITY           SKY/WX    TMP DP  RH WIND       PRES   REMARKS
DECORAH        CLEAR      0 -11  60 W5        30.42S WCI -10
MASON CITY     CLEAR     -9 -14  78 W10       30.49R WCI -27
CHARLES CITY   CLEAR     -6 -11  77 NW9       30.47R WCI -22
OELWEIN        CLEAR     -8 -15  71 W9        30.46R WCI -25
$$

...ELSEWHERE IN IOWA...


CITY           SKY/WX    TMP DP  RH WIND       PRES   REMARKS
DES MOINES     CLEAR      4  -6  63 NW9       30.53R WCI -10
IOWA CITY      CLEAR      2  -7  66 NW9       30.52R WCI -13
FORT DODGE     CLEAR     -2  -9  71 CALM      30.52R
$$

...NORTHERN ILLINOIS...


CITY           SKY/WX    TMP DP  RH WIND       PRES   REMARKS
CHICAGO-OHARE  PTCLDY     8  -6  52 NW12      30.38R WCI  -7
CHICAGO-MIDWAY PTCLDY    12  -3  51 NW9       30.38R WCI   0
MOLINE         CLEAR      5  -5  63 NW14      30.47R WCI -12
ROCKFORD       CLEAR      5  -6  60 CALM      30.42R
PEORIA         CLEAR     10   4  76 W6        30.46R WCI   0
$$

NOTE: "FAIR" INDICATES FEW OR NO CLOUDS BELOW 12,000 FEET WITH NO
SIGNIFICANT WEATHER AND/OR OBSTRUCTIONS TO VISIBILITY. WIND
SPEEDS ARE IN MILES-PER-HOUR.



USA.gov is the U.S. government's official web portal to all federal, state and local government web resources and services.